This demonstration page uses our WeatherBlox Daily Observations layout. Learn more.

Left ArrowRight Arrow

Hourly Observations for August 25, 2019

Temp ( °F °C ) Dew Point ( °F °C ) Humidity (%) Winds ( mph kmh ) Pressure ( in mb ) Visibility ( mi km ) Precip ( " mm )
12:53 am 00:53 Clear 81 27.2 63 17.2 54 54 SSE 12 19 29.80 1009 10 16 0.00 0.00
1:53 am 01:53 Clear 79 26.1 64 17.8 60 60 SSE 8 13 29.78 1009 10 16 0.00 0.00
2:53 am 02:53 Clear 76 24.4 64 17.8 67 67 SE 8 13 29.76 1008 10 16 0.00 0.00
3:53 am 03:53 Clear 75 23.9 65 18.3 71 71 SE 10 17 29.75 1007 10 16 0.00 0.00
4:53 am 04:53 Clear 73 22.8 65 18.3 76 76 SSE 7 11 29.74 1007 10 16 0.00 0.00
5:53 am 05:53 Clear 72 22.2 66 18.9 82 82 SSE 6 9 29.75 1007 10 16 0.00 0.00
6:53 am 06:53 Clear 72 22.2 65 18.3 79 79 SE 9 15 29.75 1008 10 16 0.00 0.00
7:53 am 07:53 Sunny 72 22.2 66 18.9 82 82 SE 7 11 29.75 1008 10 16 0.00 0.00
8:53 am 08:53 Sunny 77 25 65 18.3 66 66 SSE 6 9 29.77 1008 10 16 0.00 0.00
9:53 am 09:53 Sunny 85 29.4 60 15.6 43 43 WSW 10 17 29.76 1008 10 16 0.00 0.00
10:53 am 10:53 Sunny 90 32.2 58 14.4 34 34 SW 12 19 29.76 1008 10 16 0.00 0.00
11:53 am 11:53 Sunny 95 35 57 13.9 28 28 SW 12 19 29.74 1007 10 16 0.00 0.00
12:53 pm 12:53 Sunny 99 37.2 53 11.7 21 21 VRB 5 7 29.72 1007 10 16 0.00 0.00
1:53 pm 13:53 Sunny 102 38.9 48 8.9 16 16 VRB 3 6 29.70 1006 10 16 0.00 0.00
2:53 pm 14:53 Sunny 105 40.6 47 8.3 14 14 SW 10 17 29.66 1005 10 16 0.00 0.00
3:53 pm 15:53 Sunny 106 41.1 43 6.1 12 12 W 10 17 29.63 1003 10 16 0.00 0.00
4:53 pm 16:53 Sunny 107 41.7 40 4.4 10 10 W 6 9 29.61 1003 10 16 0.00 0.00
5:53 pm 17:53 Sunny 107 41.7 41 5 11 11 undefined N/A 29.59 1002 10 16 0.00 0.00
6:53 pm 18:53 Sunny 106 41.1 44 6.7 12 12 W 6 9 29.58 1002 10 16 0.00 0.00
7:53 pm 19:53 Sunny 102 38.9 47 8.3 15 15 S 7 11 29.59 1002 10 16 0.00 0.00
8:53 pm 20:53 Clear 95 35 51 10.6 23 23 S 9 15 29.59 1002 10 16 0.00 0.00
9:53 pm 21:53 Clear 89 31.7 55 12.8 31 31 SSW 8 13 29.60 1003 10 16 0.00 0.00
10:53 pm 22:53 Clear 88 31.1 54 12.2 31 31 WSW 6 9 29.61 1003 10 16 0.00 0.00
11:53 pm 23:53 Clear 85 29.4 56 13.3 37 37 SW 5 7 29.61 1003 10 16 0.00 0.00

Powered by AerisWeather